#timestamp,LO_Frequency,Hit,StdDev 
1515153615.7,286046999.7,N
1515153635.5,286047002.0,N
1515153655.3,286047003.4,N
1515153675.2,286047001.7,N
1515153695.9,286046999.9,N
1515153715.7,286047005.8,N
1515153735.5,286046999.9,N
1515153755.4,286047002.6,N
1515153775.2,286047001.5,N
1515153795.0,286047000.6,N
1515153795.9,286047000.6,N
1515153815.8,286047001.2,N
1515153835.6,286047000.2,N
1515153855.4,286047002.0,N
1515153875.3,286047000.2,N
1515153895.1,286047005.5,N
1515153896.0,286047005.5,N
1515153915.8,286047003.0,N
1515153935.7,286047002.0,N
1515153955.5,286047002.5,N
1515153975.3,286047002.1,N
1515153995.2,286046999.1,N
1515154015.9,286046997.1,N
1515154035.7,286046995.8,N
1515154055.5,286046994.8,N
1515154075.4,286046990.4,Y
1515154095.2,286046989.7,P
1515154115.0,286046987.8,N
1515154116.0,286046987.8,N
1515154135.8,286046989.5,N
1515154155.6,286046989.6,N
1515154175.4,286046989.6,N
1515154195.3,286046988.4,N
1515154215.1,286046989.6,N
1515154235.8,286046990.2,N
1515154255.7,286046992.5,N
1515154275.5,286046988.5,Y
1515154295.3,286047002.6,P
1515154315.2,286047001.4,N
1515154335.9,286046999.8,N
1515154355.7,286047002.1,N
1515154375.6,286047003.3,N
1515154395.4,286047001.1,N
1515154415.2,286046998.3,N
1515154435.1,286046993.7,N
1515154436.0,286046993.7,N
1515154455.8,286046999.1,N
1515154475.6,286046997.8,N
1515154495.4,286046998.0,N
1515154515.3,286046993.5,N
1515154535.1,286046991.7,N
1515154555.8,286046997.7,N
1515154575.7,286046997.8,N
1515154595.5,286046997.3,N
1515154615.3,286046995.1,N
1515154635.2,286046996.2,N
1515154655.9,286046993.8,N
1515154675.7,286046996.8,N
1515154695.6,286046997.2,N
1515154715.4,286046993.4,N
1515154735.2,286046992.4,N
1515154755.0,286046990.2,N
1515154756.0,286046990.2,N
1515154775.8,286046992.0,N
1515154795.6,286046992.9,N
1515154815.4,286046996.0,N
1515154835.3,286046998.8,N
1515154855.1,286046992.6,N
1515154875.8,286046987.2,Y
1515154895.7,286046990.4,P
1515154915.5,286046994.8,N
1515154935.3,286046998.0,N
1515154955.2,286046997.8,N
1515154975.9,286046995.6,N
1515154995.7,286046995.8,N
1515155015.6,286046992.3,Y
1515155035.4,286047000.0,P
1515155055.2,286047003.9,N
1515155075.1,286047003.0,N
1515155076.0,286047003.0,N
1515155095.8,286047003.4,N
1515155115.6,286046999.7,N
1515155135.5,286047001.2,N
1515155155.3,286047001.8,N
1515155175.1,286047000.0,N
1515155195.9,286047000.3,N
1515155215.7,286046997.5,N
1515155235.5,286046995.5,N
1515155255.3,286046992.2,N
1515155275.2,286046993.4,N
1515155295.9,286046997.0,N
1515155315.7,286046996.9,N
1515155335.6,286046998.5,N
1515155355.4,286047000.6,N
1515155375.2,286046997.3,N
1515155395.1,286046999.5,N
1515155396.0,286046999.5,N
1515155415.8,286046996.6,N
1515155435.6,286047001.1,N
1515155455.5,286047000.7,N
1515155475.3,286047001.3,N
1515155495.1,286047001.5,N
1515155515.8,286046998.5,N
1515155535.7,286046999.7,N
1515155555.5,286047001.7,N
1515155575.3,286047002.4,N
1515155595.2,286047001.9,N
1515155615.9,286047005.0,N
1515155635.7,286047003.4,N
1515155655.6,286047003.8,N
1515155675.4,286047005.4,N
1515155695.2,286047005.0,N
1515155715.1,286047009.1,N
1515155716.0,286047009.1,N
1515155735.8,286047008.5,N
1515155755.6,286047009.3,N
1515155775.5,286047012.2,N
1515155795.3,286047006.5,N
1515155815.1,286047003.9,N
1515155835.8,286047003.9,N
1515155855.7,286047006.0,N
1515155875.5,286046998.4,N
1515155895.3,286046998.9,N
1515155915.2,286046998.3,N
1515155935.9,286046996.5,N
1515155955.7,286046996.5,N
1515155975.6,286046998.2,N
1515155995.4,286047000.7,N
1515156015.2,286046999.5,N
1515156035.1,286046997.5,N
1515156036.0,286046997.5,N
1515156055.8,286046998.7,N
1515156075.6,286046995.3,N
1515156095.4,286046995.6,N
1515156115.3,286046996.6,N
1515156135.1,286046999.6,N
1515156155.8,286046996.7,N
1515156175.7,286046999.0,N
1515156195.5,286047000.3,N
1515156215.3,286047000.2,N
1515156235.2,286047002.7,N
1515156255.9,286047000.4,N
1515156275.7,286047000.3,N
1515156295.6,286047000.7,N
1515156315.4,286046999.1,N
1515156335.2,286047001.1,N
1515156355.1,286046996.8,N
1515156356.0,286046996.8,N
1515156375.8,286046995.7,N
1515156395.6,286046994.6,N
1515156415.4,286046996.1,N
1515156435.3,286046996.3,N
1515156455.1,286046997.9,N
1515156475.9,286046997.0,N
1515156495.7,286046994.9,N
1515156515.5,286046996.4,N
1515156535.3,286046996.0,N
1515156555.2,286046993.6,Y
1515156575.0,286046997.1,P
1515156575.9,286046997.1,P
1515156595.8,286047001.2,N
1515156615.6,286046999.8,N
1515156635.4,286046996.6,N
1515156655.2,286046998.8,N
1515156675.1,286046999.5,N
1515156676.0,286046999.5,N
1515156695.8,286046997.7,N
1515156715.6,286046997.5,N
1515156735.5,286046995.1,Y
1515156755.3,286046996.5,P
1515156775.1,286046997.5,N
1515156795.9,286046997.9,N
1515156815.7,286046995.8,Y
1515156835.5,286046996.6,P
1515156855.4,286046995.4,P
1515156875.2,286046992.1,P
1515156895.0,286046991.9,Y
1515156896.0,286046991.9,P
1515156915.8,286046996.0,N
1515156935.6,286046994.8,N
1515156955.5,286046994.7,Y
1515156975.3,286046998.2,P
1515156995.1,286047001.1,N
1515157015.8,286046998.4,N
1515157035.7,286046997.7,N
1515157055.5,286046996.2,N
1515157075.3,286046997.4,N
1515157095.2,286047000.9,N
1515157115.9,286046999.9,N
1515157135.7,286047001.7,N
1515157155.6,286047005.6,N
1515157175.4,286047005.3,N
1515157195.2,286047001.4,N
